"startDT [UTC]","vpos","CH4 [ppm]","stdev(CH4) [ppm]","CO2 [ppm]","stdev(CO2) [ppm]","H2O [ppm]","stdev(H2O)","p_LGR [torr]","T_LGR [C]","mt1_LGR [us]","mt2_LGR [us]","T_ECpre [C]","T_EC1 [C]","T_EC2 [C]","p_inlet [hPa]","p_in [hPa]","p_out [hPa]","T_inlet [C]","RH_inlet [%]","dwpt_inlet [C]","T_vent [C]","RH_vent [%]","dwpt_vent [C]","flow_vent [l min-1]","flow_inlet [l min-1]","dwpt_sample [C]","T_room [C]"
2012-06-26 00:00:00,0.0,1.9018,0.0008,393.64,0.29,38.5,35.1,138.08,30.87,24.65,36.44,1.05,-26.07,-24.88,-60,539,-929,25.9,21.6,2.3,25.8,1.5,-30.0,5.73,2.38,-27.6,30.0
2012-06-26 00:01:00,0.0,1.9026,0.0009,393.56,0.33,39.8,32.2,138.08,30.87,24.64,36.43,0.97,-26.09,-25.18,-60,539,-929,25.9,21.8,2.4,25.8,1.5,-30.1,5.73,2.38,-27.6,30.0
2012-06-26 00:02:00,0.0,1.9022,0.0010,393.70,0.34,40.3,26.6,138.08,30.87,24.65,36.44,0.97,-26.10,-25.46,-60,539,-929,25.9,21.8,2.4,25.8,1.5,-30.1,5.73,2.38,-27.6,30.0
2012-06-26 00:03:00,0.0,1.9027,0.0012,393.51,0.27,39.7,29.6,138.08,30.87,24.64,36.44,1.02,-26.11,-25.73,-60,539,-929,25.9,21.9,2.5,25.8,1.5,-30.1,5.73,2.37,-27.6,30.0
2012-06-26 00:04:00,0.0,1.9024,0.0010,393.58,0.28,37.5,27.7,138.08,30.87,24.64,36.44,1.08,-26.12,-25.98,-60,539,-929,25.9,21.9,2.5,25.8,1.5,-30.2,5.73,2.38,-27.6,30.0
2012-06-26 00:05:00,0.0,1.9035,0.0012,393.53,0.31,49.6,29.0,138.08,30.86,24.64,36.44,0.98,-26.14,-26.11,-60,539,-929,25.9,22.0,2.5,25.8,1.5,-30.3,5.73,2.38,-27.6,30.0
2012-06-26 00:06:00,0.0,1.9024,0.0009,393.67,0.25,38.6,30.1,138.08,30.86,24.64,36.44,0.97,-26.15,-25.89,-60,539,-929,25.8,21.8,2.4,25.8,1.5,-30.3,5.73,2.39,-27.6,30.0
2012-06-26 00:07:00,0.0,1.9040,0.0011,393.61,0.27,37.7,28.7,138.08,30.86,24.65,36.44,0.98,-26.16,-26.01,-60,539,-929,25.9,21.9,2.4,25.8,1.5,-30.3,5.73,2.39,-27.6,30.0
2012-06-26 00:08:00,0.0,1.9072,0.0013,393.55,0.27,44.9,30.1,138.08,30.86,24.64,36.44,1.00,-26.18,-26.17,-60,539,-929,25.9,22.1,2.6,25.8,1.5,-30.3,5.73,2.39,-27.6,30.1
2012-06-26 00:09:00,0.0,1.9046,0.0018,393.69,0.30,42.0,27.0,138.08,30.86,24.64,36.44,1.01,-26.19,-25.93,-60,539,-930,25.9,22.0,2.5,25.8,1.5,-30.3,5.73,2.38,-27.6,30.0
2012-06-26 00:10:00,0.0,1.9040,0.0009,393.65,0.29,41.6,29.6,138.08,30.85,24.64,36.44,1.08,-26.20,-26.00,-60,539,-929,25.9,22.0,2.5,25.8,1.5,-30.3,5.73,2.38,-27.6,29.9
2012-06-26 00:11:00,0.0,1.9041,0.0012,393.64,0.28,40.4,28.0,138.08,30.85,24.65,36.44,0.99,-26.21,-26.19,-60,539,-930,25.8,22.0,2.5,25.8,1.5,-30.3,5.73,2.37,-27.6,30.0
2012-06-26 00:12:00,0.0,1.9047,0.0011,393.57,0.28,37.4,28.0,138.08,30.85,24.64,36.44,0.98,-26.22,-26.03,-60,539,-930,25.8,22.1,2.6,25.8,1.5,-30.3,5.73,2.38,-27.6,30.0
2012-06-26 00:13:00,0.0,1.9023,0.0011,393.57,0.33,45.5,29.9,138.08,30.85,24.64,36.44,0.96,-26.23,-26.01,-60,539,-930,25.8,22.0,2.5,25.8,1.5,-30.4,5.73,2.38,-27.6,30.0
2012-06-26 00:14:00,0.0,1.9011,0.0009,393.49,0.29,38.1,27.3,138.08,30.85,24.65,36.44,0.99,-26.24,-26.18,-60,539,-930,25.8,22.0,2.5,25.8,1.5,-30.3,5.73,2.38,-27.6,30.0
2012-06-26 00:15:00,0.0,1.9012,0.0008,393.66,0.25,41.6,29.4,138.08,30.85,24.64,36.43,0.95,-26.25,-26.13,-60,539,-930,25.9,21.9,2.5,25.8,1.5,-30.3,5.73,2.39,-27.6,30.0
2012-06-26 00:16:00,0.0,1.9008,0.0008,393.57,0.30,39.1,27.3,138.08,30.85,24.64,36.43,1.06,-26.27,-26.02,-60,539,-930,25.9,21.9,2.4,25.8,1.5,-30.3,5.73,2.39,-27.6,29.9
2012-06-26 00:17:00,0.0,1.9004,0.0008,393.51,0.28,43.1,34.7,138.08,30.85,24.64,36.44,1.01,-26.28,-26.18,-60,539,-930,25.8,21.8,2.3,25.8,1.5,-30.4,5.73,2.39,-27.6,30.0
2012-06-26 00:18:00,0.0,1.9004,0.0009,393.65,0.27,41.4,32.5,138.08,30.85,24.65,36.44,0.95,-26.29,-26.22,-60,539,-930,25.8,21.8,2.4,25.8,1.5,-30.5,5.73,2.38,-27.6,30.0
2012-06-26 00:19:00,0.0,1.9006,0.0009,393.71,0.32,42.2,30.7,138.08,30.85,24.64,36.43,0.98,-26.30,-26.04,-60,539,-929,25.8,22.0,2.5,25.8,1.5,-30.5,5.73,2.38,-27.6,29.9
2012-06-26 00:20:00,0.0,1.9006,0.0011,393.65,0.28,39.7,27.4,138.08,30.84,24.64,36.43,0.91,-26.13,-26.17,-60,539,-929,25.8,22.0,2.5,25.8,1.5,-30.4,5.73,2.37,-27.6,29.9
2012-06-26 00:21:00,0.0,1.8999,0.0008,393.66,0.29,45.9,26.2,138.08,30.84,24.65,36.43,0.94,-24.77,-26.36,-60,539,-929,25.8,22.0,2.4,25.8,1.6,-29.8,5.73,2.37,-27.6,29.9
2012-06-26 00:22:00,0.0,1.9006,0.0008,393.63,0.28,41.9,28.9,138.08,30.84,24.65,36.43,0.96,-22.87,-26.50,-60,539,-929,25.8,22.0,2.5,25.8,1.7,-28.6,5.73,2.37,-27.6,29.9
2012-06-26 00:23:00,0.0,1.9009,0.0008,393.54,0.31,35.0,26.9,138.08,30.84,24.64,36.44,0.94,-20.93,-26.59,-60,539,-929,25.8,22.1,2.6,25.8,1.9,-27.8,5.73,2.38,-27.6,30.0
2012-06-26 00:24:00,0.0,1.9008,0.0010,393.54,0.28,40.0,28.6,138.08,30.84,24.65,36.44,0.88,-19.05,-26.65,-60,539,-929,25.8,22.2,2.6,25.8,1.9,-27.6,5.73,2.39,-27.6,29.9
2012-06-26 00:25:00,0.0,1.9018,0.0009,393.66,0.31,45.7,26.2,138.08,30.84,24.64,36.44,0.83,-17.27,-26.69,-60,539,-929,25.8,22.1,2.6,25.8,1.9,-27.7,5.73,2.39,-27.6,30.0
2012-06-26 00:26:00,0.0,1.9014,0.0010,393.75,0.25,40.6,29.4,138.08,30.83,24.65,36.43,0.87,-15.57,-26.72,-60,539,-929,25.9,22.0,2.5,25.8,1.9,-27.8,5.73,2.39,-27.6,30.0
2012-06-26 00:27:00,0.0,1.9012,0.0010,393.74,0.24,35.9,28.9,138.08,30.83,24.64,36.43,0.90,-13.96,-26.74,-60,539,-929,25.8,22.0,2.5,25.8,1.8,-28.1,5.73,2.38,-27.6,30.0
2012-06-26 00:28:00,0.0,1.9013,0.0009,393.73,0.25,42.1,26.5,138.08,30.83,24.64,36.43,0.93,-12.44,-26.76,-60,539,-929,25.8,22.1,2.5,25.8,1.8,-28.3,5.73,2.37,-27.6,30.0
2012-06-26 00:29:00,0.0,1.9012,0.0009,393.56,0.31,42.5,30.6,138.08,30.83,24.65,36.43,0.94,-10.99,-26.77,-60,539,-929,25.8,22.4,2.7,25.8,1.7,-28.6,5.73,2.37,-27.6,30.0
2012-06-26 00:30:00,0.0,1.9010,0.0009,393.57,0.30,47.0,29.4,138.08,30.83,24.65,36.44,0.95,-9.63,-26.78,-60,539,-930,25.8,22.5,2.8,25.8,1.7,-28.7,5.73,2.38,-27.6,30.0
2012-06-26 00:31:00,0.0,1.9020,0.0009,393.55,0.30,36.6,27.8,138.08,30.83,24.64,36.43,0.95,-8.33,-26.79,-60,539,-930,25.8,22.6,2.9,25.8,1.7,-28.9,5.73,2.39,-27.6,30.0
2012-06-26 00:32:00,0.0,1.9026,0.0010,393.48,0.26,37.4,28.7,138.08,30.83,24.64,36.44,0.92,-7.10,-26.79,-60,539,-929,25.8,22.7,2.9,25.8,1.7,-29.1,5.73,2.39,-27.6,30.1
2012-06-26 00:33:00,0.0,1.9042,0.0012,393.35,0.27,39.3,29.6,138.08,30.83,24.65,36.44,0.90,-5.90,-26.81,-60,539,-929,25.9,23.0,3.1,25.8,1.6,-29.2,5.73,2.39,-27.6,30.1
2012-06-26 00:34:00,0.0,1.9036,0.0009,393.60,0.27,39.7,30.3,138.08,30.83,24.65,36.44,0.88,-4.78,-26.81,-60,539,-929,25.8,22.7,2.9,25.8,1.6,-29.4,5.73,2.38,-27.6,30.0
2012-06-26 00:35:00,0.0,1.9053,0.0012,393.41,0.32,36.0,26.4,138.08,30.83,24.64,36.44,0.90,-3.72,-26.81,-60,539,-929,25.8,23.1,3.2,25.8,1.6,-29.4,5.73,2.38,-27.6,30.0
2012-06-26 00:36:00,0.0,1.9049,0.0010,393.46,0.30,43.7,27.7,138.08,30.83,24.65,36.44,0.90,-2.71,-26.82,-60,539,-929,25.8,23.1,3.2,25.8,1.6,-29.6,5.73,2.37,-27.6,30.1
2012-06-26 00:37:00,0.0,1.9051,0.0010,393.37,0.31,47.3,31.1,138.08,30.83,24.64,36.45,0.93,-1.75,-26.82,-60,539,-929,25.9,23.3,3.3,25.8,1.6,-29.6,5.73,2.38,-27.6,30.0
2012-06-26 00:38:00,0.0,1.9042,0.0010,393.50,0.29,47.3,29.8,138.08,30.83,24.65,36.43,0.93,-0.85,-26.82,-60,539,-929,25.9,23.5,3.4,25.8,1.6,-29.7,5.73,2.38,-27.5,30.0
2012-06-26 00:39:00,0.0,1.9034,0.0010,393.38,0.31,43.0,30.0,138.08,30.83,24.65,36.44,0.94,0.01,-26.82,-60,539,-929,25.8,23.6,3.5,25.8,1.6,-29.7,5.73,2.39,-27.5,30.0
2012-06-26 00:40:00,0.0,1.9031,0.0009,393.46,0.28,48.2,31.1,138.08,30.82,24.65,36.44,0.94,0.82,-26.81,-60,539,-929,25.8,23.4,3.4,25.8,1.5,-30.0,5.73,2.39,-27.5,30.0
2012-06-26 00:41:00,0.0,1.9031,0.0010,393.43,0.28,39.6,26.7,138.08,30.82,24.64,36.43,0.95,1.59,-26.81,-60,539,-929,25.8,23.6,3.5,25.8,1.5,-29.9,5.73,2.39,-27.5,30.1
2012-06-26 00:42:00,0.0,1.9036,0.0009,393.43,0.33,44.7,27.6,138.08,30.82,24.64,36.43,0.95,2.29,-26.80,-60,539,-930,25.8,23.6,3.5,25.8,1.5,-30.0,5.73,2.38,-27.5,30.1
2012-06-26 00:43:00,0.0,1.9037,0.0009,393.31,0.33,51.9,29.7,138.08,30.82,24.65,36.44,0.94,2.81,-26.80,-60,539,-930,25.9,23.7,3.6,25.8,1.5,-30.1,5.73,2.38,-27.5,30.1
2012-06-26 00:44:00,0.0,1.9038,0.0007,393.39,0.32,37.2,29.9,138.08,30.82,24.64,36.43,0.94,3.03,-26.79,-60,539,-930,25.8,23.7,3.5,25.8,1.5,-30.1,5.73,2.37,-27.5,30.1
2012-06-26 00:45:00,0.0,1.9042,0.0009,393.26,0.32,39.5,30.3,138.08,30.82,24.64,36.45,0.92,3.37,-26.78,-60,539,-930,25.9,23.8,3.6,25.8,1.5,-30.1,5.73,2.38,-27.5,30.0
2012-06-26 00:46:00,0.0,1.9040,0.0011,393.26,0.27,39.8,28.2,138.08,30.82,24.64,36.43,0.91,3.92,-26.78,-60,539,-930,25.9,23.9,3.7,25.8,1.5,-30.3,5.73,2.39,-27.5,30.1
2012-06-26 00:47:00,0.0,1.9034,0.0009,393.14,0.31,43.9,29.4,138.08,30.82,24.64,36.45,0.91,4.46,-26.78,-60,539,-930,25.9,23.9,3.7,25.8,1.5,-30.3,5.73,2.39,-27.5,30.1
2012-06-26 00:48:00,0.0,1.9033,0.0009,393.32,0.28,44.7,31.0,138.08,30.82,24.64,36.43,0.93,5.01,-26.76,-60,539,-930,25.9,24.0,3.8,25.8,1.5,-30.3,5.73,2.39,-27.5,30.1
2012-06-26 00:49:00,0.0,1.9025,0.0010,393.22,0.29,43.9,32.8,138.08,30.82,24.65,36.44,0.90,5.54,-26.76,-60,539,-930,25.9,23.9,3.7,25.8,1.5,-30.4,5.73,2.38,-27.5,30.1
2012-06-26 00:50:00,0.0,1.9036,0.0010,393.12,0.31,47.6,26.5,138.08,30.82,24.64,36.44,0.90,6.03,-26.76,-60,539,-930,25.9,24.1,3.8,25.8,1.4,-30.5,5.73,2.38,-27.5,30.1
2012-06-26 00:51:00,0.0,1.9053,0.0012,393.08,0.35,50.0,29.7,138.08,30.81,24.64,36.44,0.94,6.51,-26.75,-60,539,-929,25.9,24.2,3.9,25.8,1.4,-30.5,5.73,2.37,-27.5,30.1
2012-06-26 00:52:00,0.0,1.9080,0.0017,393.08,0.29,44.7,28.3,138.08,30.81,24.64,36.44,0.93,6.96,-26.73,-60,539,-929,25.9,24.3,3.9,25.8,1.4,-30.5,5.73,2.38,-27.5,30.1
2012-06-26 00:53:00,0.0,1.9098,0.0009,393.21,0.28,54.0,30.5,138.08,30.81,24.64,36.44,0.94,7.41,-26.73,-60,539,-929,25.9,24.4,4.0,25.8,1.4,-30.5,5.73,2.39,-27.4,30.2
2012-06-26 00:54:00,0.0,1.9121,0.0016,393.25,0.30,49.5,30.7,138.08,30.81,24.64,36.44,0.93,7.83,-26.72,-60,539,-929,25.9,24.5,4.1,25.8,1.4,-30.5,5.73,2.39,-27.5,30.1
2012-06-26 00:55:00,0.0,1.9168,0.0013,393.20,0.26,47.5,28.7,138.08,30.81,24.65,36.43,0.94,8.23,-26.71,-60,539,-929,25.9,24.8,4.2,25.8,1.4,-30.5,5.73,2.39,-27.5,30.2
2012-06-26 00:56:00,0.0,1.9141,0.0013,393.30,0.33,46.6,30.2,138.08,30.81,24.64,36.43,0.94,8.62,-26.70,-60,539,-929,25.9,24.8,4.2,25.8,1.4,-30.5,5.73,2.38,-27.5,30.1
2012-06-26 00:57:00,0.0,1.9143,0.0021,393.26,0.30,40.8,30.5,138.08,30.81,24.65,36.44,0.94,9.00,-26.70,-60,539,-929,25.9,24.9,4.2,25.8,1.4,-30.5,5.73,2.37,-27.5,30.1
2012-06-26 00:58:00,0.0,1.9120,0.0020,393.32,0.29,45.6,29.0,138.08,30.81,24.64,36.44,0.94,9.36,-26.69,-60,539,-929,25.9,24.7,4.1,25.8,1.4,-30.5,5.73,2.37,-27.5,30.1
2012-06-26 00:59:00,0.0,1.9096,0.0012,393.34,0.26,44.1,30.5,138.08,30.81,24.64,36.44,0.95,9.72,-26.68,-60,539,-929,25.9,24.5,4.0,25.8,1.4,-30.6,5.73,2.38,-27.5,30.1
2012-06-26 01:00:00,0.0,1.9108,0.0018,393.40,0.30,37.6,24.7,138.08,30.81,24.65,36.43,0.95,10.07,-26.67,-60,539,-929,25.9,24.4,4.0,25.8,1.4,-30.5,5.73,2.39,-27.5,30.1
2012-06-26 01:01:00,0.0,1.9131,0.0019,393.18,0.24,43.4,29.3,138.08,30.81,24.64,36.44,0.95,10.41,-26.66,-60,539,-929,25.9,24.7,4.1,25.8,1.4,-30.5,5.73,2.39,-27.5,30.1
2012-06-26 01:02:00,0.0,1.9101,0.0013,393.25,0.27,49.6,32.9,138.08,30.81,24.64,36.44,0.95,10.74,-26.65,-60,539,-929,25.9,24.6,4.1,25.8,1.4,-30.5,5.73,2.38,-27.5,30.2
2012-06-26 01:03:00,0.0,1.9099,0.0009,393.07,0.24,44.4,28.7,138.08,30.81,24.64,36.43,0.94,11.05,-26.64,-60,539,-929,25.9,24.8,4.2,25.8,1.4,-30.5,5.73,2.38,-27.5,30.1
2012-06-26 01:04:00,0.0,1.9098,0.0010,393.19,0.27,42.6,30.5,138.08,30.81,24.64,36.43,0.93,11.37,-26.63,-60,539,-929,25.9,24.8,4.2,25.8,1.5,-30.5,5.73,2.37,-27.5,30.1
2012-06-26 01:05:00,0.0,1.9102,0.0008,393.14,0.29,44.3,28.1,138.08,30.81,24.64,36.44,0.94,11.66,-26.63,-60,539,-929,25.9,24.7,4.2,25.8,1.4,-30.6,5.73,2.38,-27.5,30.1
2012-06-26 01:06:00,0.0,1.9096,0.0010,393.11,0.26,47.0,25.2,138.08,30.81,24.65,36.44,0.93,11.94,-26.62,-60,539,-929,25.9,24.7,4.2,25.8,1.4,-30.6,5.73,2.39,-27.5,30.1
2012-06-26 01:07:00,0.0,1.9088,0.0009,393.10,0.29,43.0,27.6,138.08,30.80,24.64,36.43,0.93,12.21,-26.61,-60,539,-929,25.9,24.6,4.1,25.8,1.4,-30.7,5.73,2.39,-27.5,30.1
2012-06-26 01:08:00,0.0,1.9090,0.0011,393.01,0.32,48.7,28.8,138.08,30.81,24.65,36.44,0.95,12.47,-26.60,-60,539,-929,25.9,24.7,4.2,25.8,1.4,-30.7,5.73,2.38,-27.5,30.1
2012-06-26 01:09:00,0.0,1.9095,0.0015,392.99,0.28,41.0,29.7,138.08,30.80,24.65,36.44,0.92,12.72,-26.59,-60,539,-929,25.9,24.8,4.2,25.8,1.4,-30.7,5.73,2.38,-27.5,30.1
2012-06-26 01:10:00,0.0,1.9065,0.0010,393.11,0.25,44.7,29.4,138.08,30.80,24.64,36.44,0.91,12.96,-26.59,-60,539,-929,25.9,24.5,4.0,25.8,1.4,-30.7,5.73,2.37,-27.5,30.2
2012-06-26 01:11:00,0.0,1.9089,0.0008,393.12,0.27,47.9,27.8,138.08,30.80,24.64,36.44,0.94,13.19,-26.58,-60,539,-929,25.9,24.6,4.1,25.8,1.4,-30.7,5.73,2.37,-27.5,30.2
2012-06-26 01:12:00,0.0,1.9061,0.0014,393.13,0.35,44.1,33.2,138.08,30.80,24.64,36.44,0.93,13.41,-26.58,-60,539,-929,25.9,24.4,4.0,25.8,1.4,-30.7,5.73,2.38,-27.5,30.1
2012-06-26 01:13:00,0.0,1.9085,0.0016,393.12,0.25,40.2,26.4,138.08,30.80,24.64,36.43,0.92,13.62,-26.57,-60,539,-929,25.9,24.4,4.0,25.8,1.4,-30.7,5.73,2.39,-27.5,30.1
2012-06-26 01:14:00,0.0,1.9134,0.0014,393.00,0.26,53.4,29.0,138.08,30.80,24.64,36.44,0.94,13.82,-26.56,-60,539,-929,25.9,24.6,4.1,25.8,1.4,-30.7,5.73,2.39,-27.5,30.2
2012-06-26 01:15:00,0.0,1.9121,0.0036,393.07,0.33,43.3,27.2,138.08,30.80,24.64,36.43,0.95,14.02,-26.56,-60,539,-929,25.9,24.6,4.1,25.8,1.4,-30.7,5.73,2.37,-27.5,30.2
2012-06-26 01:16:00,0.0,1.9096,0.0042,393.10,0.30,40.7,32.9,138.08,30.80,24.65,36.43,0.92,14.20,-26.55,-60,539,-929,25.9,24.7,4.2,25.8,1.4,-30.7,5.73,2.37,-27.5,30.2
2012-06-26 01:17:00,0.0,1.9095,0.0017,392.97,0.32,43.8,33.1,138.08,30.80,24.64,36.44,0.94,14.38,-26.55,-60,539,-929,25.9,24.8,4.2,25.8,1.4,-30.8,5.73,2.37,-27.5,30.2
2012-06-26 01:18:00,0.0,1.9078,0.0019,393.18,0.29,44.3,27.9,138.08,30.80,24.64,36.43,0.94,14.55,-26.54,-60,539,-929,25.9,24.9,4.2,25.8,1.4,-30.7,5.73,2.38,-27.5,30.2
2012-06-26 01:19:00,0.0,1.9050,0.0008,393.21,0.28,46.7,31.7,138.08,30.80,24.64,36.43,0.94,14.71,-26.53,-60,539,-929,25.9,24.7,4.1,25.8,1.4,-30.7,5.73,2.39,-27.5,30.2
2012-06-26 01:20:00,0.0,1.9041,0.0014,393.11,0.27,38.3,29.3,138.08,30.79,24.65,36.44,0.94,14.86,-26.53,-60,539,-929,25.9,24.5,4.1,25.8,1.4,-30.7,5.73,2.39,-27.5,30.1
2012-06-26 01:21:00,0.0,1.9052,0.0009,392.98,0.31,50.4,34.5,138.08,30.79,24.65,36.44,0.95,15.01,-26.52,-60,539,-929,25.9,24.8,4.2,25.8,1.4,-30.7,5.73,2.37,-27.5,30.1
2012-06-26 01:22:00,0.0,1.9058,0.0012,392.93,0.28,48.6,31.8,138.08,30.80,24.65,36.44,0.92,15.15,-26.52,-60,539,-929,25.9,24.8,4.2,25.8,1.4,-30.7,5.73,2.37,-27.6,30.1
2012-06-26 01:23:00,0.0,1.9057,0.0010,393.10,0.31,43.3,26.3,138.08,30.79,24.64,36.43,0.96,15.28,-26.51,-60,539,-929,25.9,24.7,4.2,25.8,1.4,-30.7,5.73,2.37,-27.5,30.2
2012-06-26 01:24:00,0.0,1.9064,0.0011,393.12,0.27,39.0,31.0,138.08,30.79,24.64,36.43,0.93,15.42,-26.50,-60,539,-929,25.9,24.8,4.2,25.8,1.4,-30.7,5.73,2.38,-27.5,30.2
2012-06-26 01:25:00,0.0,1.9063,0.0009,393.08,0.27,41.3,30.0,138.08,30.79,24.64,36.43,0.94,15.54,-26.50,-60,539,-929,25.9,25.0,4.3,25.8,1.4,-30.7,5.73,2.39,-27.5,30.1
2012-06-26 01:26:00,0.0,1.9066,0.0009,392.86,0.31,33.4,25.9,138.08,30.79,24.64,36.44,0.94,15.66,-26.50,-60,539,-929,25.9,25.1,4.4,25.8,1.4,-30.7,5.73,2.39,-27.6,30.1
2012-06-26 01:27:00,0.0,1.9072,0.0009,392.76,0.29,38.2,26.4,138.08,30.79,24.64,36.44,0.94,15.77,-26.49,-60,539,-929,25.9,25.4,4.6,25.8,1.4,-30.7,5.73,2.38,-27.6,30.1
2012-06-26 01:28:00,0.0,1.9059,0.0009,392.90,0.31,43.2,30.4,138.08,30.79,24.64,36.44,0.94,15.88,-26.49,-60,539,-929,25.9,25.2,4.5,25.8,1.4,-30.7,5.73,2.37,-27.6,30.1
2012-06-26 01:29:00,0.0,1.9058,0.0013,392.76,0.32,38.5,29.6,138.08,30.79,24.64,36.44,0.94,15.98,-26.49,-60,539,-929,25.9,25.2,4.4,25.8,1.4,-30.7,5.73,2.37,-27.6,30.1
2012-06-26 01:30:00,0.0,1.9047,0.0008,392.89,0.30,33.2,26.5,138.08,30.79,24.64,36.44,0.94,16.08,-26.48,-60,539,-929,25.9,25.0,4.3,25.8,1.4,-30.7,5.73,2.38,-27.6,30.1
2012-06-26 01:31:00,0.0,1.9058,0.0013,392.71,0.35,38.4,24.2,138.08,30.79,24.64,36.44,0.95,16.17,-26.47,-60,539,-929,25.9,25.4,4.5,25.8,1.4,-30.7,5.73,2.38,-27.6,30.1
2012-06-26 01:32:00,0.0,1.9059,0.0009,392.71,0.32,35.6,31.4,138.08,30.79,24.64,36.43,0.95,16.26,-26.47,-60,539,-929,25.9,25.5,4.6,25.8,1.4,-30.7,5.73,2.39,-27.6,30.1
2012-06-26 01:33:00,0.0,1.9072,0.0010,392.72,0.29,40.5,29.2,138.08,30.79,24.65,36.43,0.95,16.35,-26.47,-60,539,-929,25.9,25.5,4.6,25.8,1.4,-30.7,5.73,2.39,-27.6,30.1
2012-06-26 01:34:00,0.0,1.9061,0.0009,392.92,0.29,43.1,27.6,138.08,30.79,24.64,36.44,0.95,16.43,-26.46,-60,539,-929,25.9,25.0,4.3,25.8,1.4,-30.7,5.73,2.38,-27.6,30.1
2012-06-26 01:35:00,0.0,1.9090,0.0015,392.67,0.31,36.9,28.6,138.08,30.79,24.64,36.44,0.95,16.51,-26.45,-60,539,-929,25.9,25.2,4.4,25.8,1.4,-30.7,5.73,2.36,-27.6,30.1
2012-06-26 01:36:00,0.0,1.9096,0.0009,392.76,0.29,36.4,27.5,138.08,30.79,24.64,36.44,0.95,16.58,-26.45,-60,539,-929,25.9,25.3,4.5,25.8,1.4,-30.7,5.73,2.37,-27.6,30.1
2012-06-26 01:37:00,0.0,1.9100,0.0012,392.64,0.29,40.2,28.2,138.08,30.79,24.64,36.44,0.95,16.66,-26.45,-60,539,-929,25.9,25.3,4.5,25.8,1.4,-30.7,5.73,2.38,-27.6,30.1
2012-06-26 01:38:00,0.0,1.9091,0.0010,392.69,0.37,40.4,29.0,138.08,30.78,24.65,36.44,0.95,16.72,-26.44,-60,539,-929,25.9,25.3,4.5,25.8,1.4,-30.7,5.73,2.39,-27.6,30.1
2012-06-26 01:39:00,0.0,1.9065,0.0013,392.80,0.36,41.2,34.5,138.08,30.78,24.64,36.44,0.94,16.79,-26.44,-60,539,-929,25.9,25.0,4.3,25.8,1.4,-30.7,5.73,2.39,-27.6,30.1
2012-06-26 01:40:00,0.0,1.9056,0.0012,392.82,0.28,41.9,27.0,138.08,30.78,24.64,36.44,0.94,16.85,-26.44,-60,539,-929,25.9,25.0,4.3,25.8,1.4,-30.7,5.73,2.38,-27.6,30.1
2012-06-26 01:41:00,0.0,1.9073,0.0010,392.48,0.30,34.5,25.8,138.08,30.78,24.65,36.44,0.93,16.92,-26.44,-60,539,-929,25.9,25.4,4.6,25.8,1.4,-30.7,5.73,2.37,-27.6,30.2
2012-06-26 01:42:00,0.0,1.9049,0.0009,392.72,0.25,38.1,28.7,138.08,30.78,24.64,36.44,0.94,16.97,-26.43,-60,539,-929,25.9,25.1,4.4,25.8,1.4,-30.7,5.73,2.37,-27.6,30.2
2012-06-26 01:43:00,0.0,1.9068,0.0011,392.72,0.28,50.7,29.8,138.08,30.79,24.65,36.44,0.94,17.03,-26.43,-60,539,-929,25.9,25.2,4.5,25.8,1.4,-30.7,5.73,2.38,-27.6,30.2
2012-06-26 01:44:00,0.0,1.9074,0.0011,392.51,0.27,30.4,27.8,138.08,30.79,24.65,36.44,0.94,17.08,-26.42,-61,539,-929,25.9,25.5,4.6,25.8,1.4,-30.7,5.73,2.39,-27.6,30.1
2012-06-26 01:45:00,0.0,1.9071,0.0012,392.58,0.30,33.2,27.1,138.08,30.79,24.64,36.43,0.92,17.14,-26.42,-60,539,-929,25.9,25.7,4.7,25.8,1.4,-30.7,5.73,2.39,-27.6,30.1
2012-06-26 01:46:00,0.0,1.9046,0.0014,392.75,0.33,38.3,31.8,138.08,30.78,24.64,36.44,0.93,17.18,-26.42,-60,539,-929,25.9,25.2,4.4,25.8,1.4,-30.7,5.73,2.38,-27.6,30.1
2012-06-26 01:47:00,0.0,1.9058,0.0015,392.70,0.32,42.4,25.8,138.08,30.78,24.65,36.44,0.92,17.23,-26.41,-60,539,-929,25.9,25.3,4.5,25.8,1.4,-30.7,5.73,2.37,-27.6,30.1
2012-06-26 01:48:00,0.0,1.9057,0.0010,392.70,0.30,36.9,25.3,138.08,30.78,24.64,36.44,0.94,17.27,-26.41,-60,539,-929,25.9,25.3,4.5,25.8,1.4,-30.7,5.73,2.37,-27.6,30.1
2012-06-26 01:49:00,0.0,1.9042,0.0015,392.95,0.30,40.4,28.9,138.08,30.78,24.65,36.43,0.92,17.32,-26.41,-60,539,-929,25.9,24.8,4.2,25.8,1.4,-30.7,5.73,2.37,-27.6,30.1
2012-06-26 01:50:00,0.0,1.9066,0.0014,392.76,0.34,40.2,28.7,138.08,30.78,24.64,36.44,0.94,17.36,-26.41,-60,539,-929,25.9,24.8,4.2,25.8,1.4,-30.7,5.73,2.39,-27.6,30.1
2012-06-26 01:51:00,0.0,1.9060,0.0015,392.93,0.31,33.6,27.8,138.08,30.78,24.64,36.43,0.93,17.40,-26.40,-60,539,-929,25.9,24.9,4.3,25.8,1.4,-30.7,5.73,2.39,-27.6,30.1
2012-06-26 01:52:00,0.0,1.9048,0.0010,392.87,0.26,35.1,27.4,138.08,30.78,24.64,36.43,0.94,17.43,-26.40,-60,539,-929,25.9,24.8,4.2,25.8,1.4,-30.7,5.73,2.38,-27.6,30.1
2012-06-26 01:53:00,0.0,1.9061,0.0012,392.83,0.27,34.2,28.4,138.08,30.78,24.65,36.44,0.93,17.47,-26.40,-60,539,-929,25.9,24.8,4.2,25.8,1.4,-30.7,5.73,2.37,-27.6,30.1
2012-06-26 01:54:00,0.0,1.9069,0.0010,392.78,0.24,31.9,28.0,138.08,30.78,24.64,36.44,0.93,17.51,-26.40,-60,539,-929,25.9,24.8,4.2,25.8,1.4,-30.7,5.73,2.37,-27.6,30.1
2012-06-26 01:55:00,0.0,1.9097,0.0018,392.83,0.31,32.0,29.3,138.08,30.78,24.65,36.44,0.94,17.54,-26.39,-60,539,-930,25.9,25.1,4.4,25.8,1.4,-30.7,5.73,2.37,-27.6,30.1
2012-06-26 01:56:00,0.0,1.9096,0.0015,392.77,0.35,42.2,30.1,138.08,30.78,24.65,36.44,0.94,17.57,-26.39,-60,539,-930,25.9,25.3,4.5,25.8,1.4,-30.7,5.73,2.38,-27.6,30.1
2012-06-26 01:57:00,0.0,1.9062,0.0027,392.72,0.33,34.9,29.6,138.08,30.78,24.65,36.44,0.94,17.60,-26.39,-60,539,-930,25.9,25.2,4.4,25.8,1.4,-30.7,5.73,2.39,-27.6,30.1
2012-06-26 01:58:00,0.0,1.9038,0.0009,392.81,0.29,41.1,32.0,138.08,30.78,24.64,36.44,0.94,17.63,-26.39,-60,539,-930,25.9,25.1,4.4,25.8,1.4,-30.7,5.73,2.38,-27.6,30.1
2012-06-26 01:59:00,0.0,1.9045,0.0011,392.76,0.32,43.8,31.2,138.08,30.78,24.64,36.44,0.93,17.66,-26.38,-60,539,-930,25.9,25.2,4.4,25.8,1.4,-30.7,5.73,2.37,-27.6,30.1
2012-06-26 02:00:00,0.0,1.9079,0.0017,392.73,0.23,37.3,29.7,138.08,30.78,24.64,36.44,0.93,17.68,-26.38,-60,539,-930,25.9,25.4,4.6,25.8,1.4,-30.7,5.73,2.37,-27.6,30.1
2012-06-26 02:01:00,0.0,1.9081,0.0011,392.87,0.31,31.8,24.9,138.08,30.78,24.64,36.44,0.95,17.71,-26.38,-60,539,-930,25.9,25.4,4.5,25.8,1.4,-30.7,5.73,2.37,-27.6,30.1
2012-06-26 02:02:00,0.0,1.9059,0.0011,392.81,0.30,33.4,25.2,138.08,30.78,24.64,36.44,0.95,17.73,-26.38,-60,539,-930,25.9,25.3,4.5,25.8,1.4,-30.7,5.73,2.38,-27.6,30.1
2012-06-26 02:03:00,0.0,1.9068,0.0013,392.88,0.32,35.4,30.7,138.08,30.78,24.64,36.44,0.95,17.76,-26.38,-60,539,-930,25.9,25.5,4.6,25.8,1.4,-30.7,5.73,2.39,-27.6,30.2
2012-06-26 02:04:00,0.0,1.9034,0.0013,392.95,0.28,34.3,25.6,138.08,30.78,24.65,36.44,0.94,17.78,-26.37,-60,539,-930,25.9,25.2,4.4,25.8,1.4,-30.7,5.73,2.38,-27.6,30.2
2012-06-26 02:05:00,0.0,1.9024,0.0017,392.85,0.31,33.8,27.3,138.08,30.78,24.64,36.44,0.95,17.80,-26.37,-60,539,-930,25.9,25.0,4.3,25.8,1.4,-30.7,5.73,2.37,-27.6,30.1
2012-06-26 02:06:00,0.0,1.9027,0.0016,392.71,0.25,31.7,31.9,138.08,30.77,24.65,36.44,0.94,17.82,-26.37,-60,539,-929,25.9,25.0,4.3,25.8,1.4,-30.7,5.73,2.37,-27.6,30.2
2012-06-26 02:07:00,0.0,1.9027,0.0012,392.68,0.34,39.2,30.0,138.08,30.77,24.64,36.45,0.95,17.84,-26.37,-60,539,-929,25.9,25.1,4.4,25.8,1.4,-30.7,5.73,2.38,-27.6,30.2
2012-06-26 02:08:00,0.0,1.9016,0.0010,392.64,0.27,37.1,24.4,138.08,30.77,24.64,36.44,0.95,17.86,-26.36,-60,539,-929,25.9,25.0,4.4,25.8,1.4,-30.7,5.73,2.39,-27.6,30.1
2012-06-26 02:09:00,0.0,1.9040,0.0010,392.54,0.33,40.4,26.7,138.08,30.77,24.64,36.44,0.94,17.88,-26.36,-60,539,-929,25.9,25.4,4.6,25.9,1.4,-30.7,5.73,2.39,-27.6,30.2
2012-06-26 02:10:00,0.0,1.9034,0.0010,392.48,0.31,41.3,31.4,138.08,30.77,24.64,36.44,0.94,17.89,-26.37,-60,539,-929,25.9,25.7,4.7,25.8,1.4,-30.7,5.73,2.38,-27.6,30.2
2012-06-26 02:11:00,0.0,1.9039,0.0011,392.43,0.29,40.7,34.9,138.08,30.77,24.64,36.45,0.95,17.91,-26.36,-60,539,-929,25.9,25.7,4.8,25.9,1.4,-30.7,5.73,2.37,-27.6,30.2
2012-06-26 02:12:00,0.0,1.9044,0.0009,392.44,0.25,38.2,26.0,138.08,30.77,24.64,36.44,0.94,17.92,-26.37,-60,539,-929,25.9,25.9,4.8,25.8,1.4,-30.7,5.73,2.37,-27.6,30.2
2012-06-26 02:13:00,0.0,1.9044,0.0010,392.38,0.29,32.0,26.6,138.08,30.77,24.65,36.44,0.94,17.94,-26.36,-61,539,-929,25.9,25.8,4.8,25.8,1.4,-30.7,5.73,2.38,-27.7,30.2
2012-06-26 02:14:00,0.0,1.9046,0.0009,392.37,0.33,27.2,27.1,138.08,30.77,24.64,36.44,0.94,17.95,-26.37,-60,539,-929,25.9,25.7,4.7,25.8,1.4,-30.7,5.73,2.39,-27.6,30.2
2012-06-26 02:15:00,0.0,1.9054,0.0008,392.37,0.27,44.4,27.5,138.08,30.77,24.65,36.44,0.95,17.96,-26.36,-60,539,-930,25.9,25.8,4.8,25.8,1.4,-30.7,5.73,2.39,-27.7,30.1
2012-06-26 02:16:00,0.0,1.9047,0.0008,392.58,0.29,43.2,30.9,138.08,30.77,24.65,36.44,0.94,17.97,-26.36,-60,539,-930,25.9,25.6,4.6,25.8,1.4,-30.7,5.73,2.38,-27.7,30.2
2012-06-26 02:17:00,0.0,1.9042,0.0011,392.55,0.31,39.3,27.0,138.08,30.77,24.64,36.44,0.95,17.99,-26.36,-60,539,-930,25.9,25.4,4.5,25.8,1.4,-30.7,5.73,2.37,-27.7,30.1
2012-06-26 02:18:00,0.0,1.9049,0.0013,392.59,0.34,37.2,27.1,138.08,30.77,24.64,36.43,1.03,17.74,-26.36,-60,539,-930,25.9,25.5,4.6,25.8,1.4,-30.7,5.73,2.37,-27.7,30.1
2012-06-26 02:19:00,0.0,1.9057,0.0011,392.36,0.35,30.7,25.8,138.08,30.77,24.65,36.44,1.13,16.08,-26.36,-60,539,-930,25.9,25.6,4.7,25.8,1.4,-30.7,5.73,2.38,-27.7,30.1
2012-06-26 02:20:00,0.0,1.9060,0.0011,392.29,0.33,41.6,27.9,138.08,30.77,24.65,36.43,1.02,13.82,-26.37,-61,539,-930,25.9,26.0,4.9,25.8,1.4,-30.7,5.73,2.39,-27.7,30.1
2012-06-26 02:21:00,0.0,1.9053,0.0008,392.23,0.23,39.6,28.1,138.08,30.77,24.65,36.44,0.91,11.46,-26.38,-61,539,-930,25.9,26.1,4.9,25.8,1.4,-30.7,5.73,2.39,-27.7,30.1